Tracking 29489 objects as of 10-Sep-2024
HD Live streaming from Space Station
objects crossing your sky now

FENGYUN 1C DEB

Track FENGYUN 1C DEB now!
10-day predictions


NORAD ID: 30280
Int'l Code: 1999-025YR
Perigee: 850.2 km
Apogee: 967.7 km
Inclination: 98.8 °
Period: 103.0 minutes
Semi major axis: 7279 km
RCS: 0.043 m2 (small)
Launch date: May 10, 1999
Source: People's Republic of China (PRC)
Launch site: Taiyaun Space Center, China (TSC)

Note: This is SATELLITE DEBRIS
Your satellite tracking list
Your tracking list is empty




NASA's NSSDC Master Catalog

Two Line Element Set (TLE):
1 30280U 99025YR  24253.50206632  .00000856  00000-0  61803-3 0  9998
2 30280  98.7566 257.5454 0080690 162.3747 355.8648 13.97690269899895
Source of the keplerian elements: AFSPC